Location: Downe
(51.3167°N, 0.0500°E)
Time: 22:46:51
(UTC+00:00)

ATLAS 2AS CENTAUR R/B - Pass Details

Date: 17 November 2019
Orbit: 926 x 1286 km, 63.7° (Epoch: 02 December)

Event Time Altitude Azimuth Distance (km) Brightness Sun altitude
Exits shadow 03:31:59 46° 359° (N) 1,598 3.5 -35.2°
Maximum altitude 03:33:21 51° 30° (NNE) 1,498 3.5 -35.0°
Drops below altitude 10° 03:40:29 10° 106° (ESE) 3,036 5.7 -33.9°
Sets 03:43:11 0° 111° (ESE) 3,941 6.4 -33.5°
